{"data":{"norad_id":68714,"intl_designator":"2026-081R","name":"STARLINK-37225","alt_names":[],"object_type":"PAYLOAD","status":"ACTIVE","operator":null,"country":"US","launch_date":"2026-04-14","launch_site_code":"AFETR","launch_vehicle":null,"mission":null,"orbit_class":"UNKNOWN","rcs_meters":null,"size_class":null,"mass_kg":null,"dimensions":null,"purposes":["comms"],"wikipedia_slug":null,"has_3d_model":false,"image_url":null,"decayed_at":null,"tle_current":{"epoch":"2026-09-20T03:25:19.559136Z","epoch_age_seconds":75274,"freshness":"FRESH","line1":"1 68714U 26081R   26263.14258749  .00014808  00000+0  44853-3 0  9999","line2":"2 68714  53.1598 207.3937 0001259  91.1384 268.9763 15.34400414 24567","mean_motion":15.34400414,"eccentricity":0.0001259,"inclination_deg":53.1598,"raan_deg":207.3937,"arg_perigee_deg":91.1384,"mean_anomaly_deg":268.9763,"bstar":0.00044853,"rev_number":2456,"period_min":93.847732760062,"perigee_km":461.84074808081,"apogee_km":463.56327134346,"semimajor_km":6840.8390097121,"source":"CELESTRAK","updated_at":"2026-09-20T09:00:43.960961Z"}}}